Year,Month,Day,Hour,Minute,Value (Times are PST for temperature in C)
2012,10,01,00,00,9.30
2012,10,01,00,01,9.30
2012,10,01,00,02,9.30
2012,10,01,00,03,9.30
2012,10,01,00,04,9.30
2012,10,01,00,05,9.30
2012,10,01,00,06,9.30
2012,10,01,00,07,9.30
2012,10,01,00,08,9.30
2012,10,01,00,09,9.20
2012,10,01,00,10,9.20
2012,10,01,00,11,9.20
2012,10,01,00,12,9.20
2012,10,01,00,13,9.20
2012,10,01,00,14,9.20
2012,10,01,00,15,9.20
2012,10,01,00,16,9.20
2012,10,01,00,17,9.20
2012,10,01,00,18,9.20
2012,10,01,00,19,9.10
2012,10,01,00,20,9.10
2012,10,01,00,21,9.10
2012,10,01,00,22,9.10
2012,10,01,00,23,9.10
2012,10,01,00,24,9.00
2012,10,01,00,25,9.00
2012,10,01,00,26,9.00
2012,10,01,00,27,9.00
2012,10,01,00,28,9.00
2012,10,01,00,29,9.00
2012,10,01,00,30,9.00
2012,10,01,00,31,9.00
2012,10,01,00,32,9.00
2012,10,01,00,33,9.00
2012,10,01,00,34,9.00
2012,10,01,00,35,9.00
2012,10,01,00,36,9.10
2012,10,01,00,37,9.00
2012,10,01,00,38,9.00
2012,10,01,00,39,9.00
2012,10,01,00,40,8.90
2012,10,01,00,41,8.90
2012,10,01,00,42,8.90
2012,10,01,00,43,8.90
2012,10,01,00,44,8.90
2012,10,01,00,45,8.90
2012,10,01,00,46,8.90
2012,10,01,00,47,8.90
2012,10,01,00,48,8.90
2012,10,01,00,49,8.90
2012,10,01,00,50,8.90
2012,10,01,00,51,8.80
2012,10,01,00,52,8.80
2012,10,01,00,53,8.80
2012,10,01,00,54,8.80
2012,10,01,00,55,8.70
2012,10,01,00,56,8.70
2012,10,01,00,57,8.70
2012,10,01,00,58,8.70
2012,10,01,00,59,8.70
2012,10,01,01,00,8.70
2012,10,01,01,01,8.70
2012,10,01,01,02,8.70
2012,10,01,01,03,8.70
2012,10,01,01,04,8.80
2012,10,01,01,05,8.80
2012,10,01,01,06,8.80
2012,10,01,01,07,8.80
2012,10,01,01,08,8.80
2012,10,01,01,09,8.80
2012,10,01,01,10,8.80
2012,10,01,01,11,8.80
2012,10,01,01,12,8.70
2012,10,01,01,13,8.70
2012,10,01,01,14,8.70
2012,10,01,01,15,8.70
2012,10,01,01,16,8.70
2012,10,01,01,17,8.70
2012,10,01,01,18,8.70
2012,10,01,01,19,8.70
2012,10,01,01,20,8.70
2012,10,01,01,21,8.70
2012,10,01,01,22,8.70
2012,10,01,01,23,8.70
2012,10,01,01,24,8.70
2012,10,01,01,25,8.70
2012,10,01,01,26,8.70
2012,10,01,01,27,8.70
2012,10,01,01,28,8.70
2012,10,01,01,29,8.70
2012,10,01,01,30,8.70
2012,10,01,01,31,8.70
2012,10,01,01,32,8.70
2012,10,01,01,33,8.70
2012,10,01,01,34,8.70
2012,10,01,01,35,8.60
2012,10,01,01,36,8.60
2012,10,01,01,37,8.60
2012,10,01,01,38,8.60
2012,10,01,01,39,8.60
2012,10,01,01,40,8.60
2012,10,01,01,41,8.60
2012,10,01,01,42,8.60
2012,10,01,01,43,8.60
2012,10,01,01,44,8.60
2012,10,01,01,45,8.70
2012,10,01,01,46,8.70
2012,10,01,01,47,8.70
2012,10,01,01,48,8.60
2012,10,01,01,49,8.60
2012,10,01,01,50,8.60
2012,10,01,01,51,8.60
2012,10,01,01,52,8.60
2012,10,01,01,53,8.60
2012,10,01,01,54,8.60
2012,10,01,01,55,8.60
2012,10,01,01,56,8.60
2012,10,01,01,57,8.70
2012,10,01,01,58,8.70
2012,10,01,01,59,8.70
2012,10,01,02,00,8.70
2012,10,01,02,01,8.70
2012,10,01,02,02,8.70
2012,10,01,02,03,8.70
2012,10,01,02,04,8.70
2012,10,01,02,05,8.70
2012,10,01,02,06,8.70
2012,10,01,02,07,8.60
2012,10,01,02,08,8.60
2012,10,01,02,09,8.60
2012,10,01,02,10,8.60
2012,10,01,02,11,8.50
2012,10,01,02,12,8.50
2012,10,01,02,13,8.50
2012,10,01,02,14,8.50
2012,10,01,02,15,8.50
2012,10,01,02,16,8.50
2012,10,01,02,17,8.50
2012,10,01,02,18,8.50
2012,10,01,02,19,8.50
2012,10,01,02,20,8.50
2012,10,01,02,21,8.50
2012,10,01,02,22,8.50
2012,10,01,02,23,8.50
2012,10,01,02,24,8.40
2012,10,01,02,25,8.40
2012,10,01,02,26,8.40
2012,10,01,02,27,8.40
2012,10,01,02,28,8.40
2012,10,01,02,29,8.40
2012,10,01,02,30,8.40
2012,10,01,02,31,8.40
2012,10,01,02,32,8.50
2012,10,01,02,33,8.50
2012,10,01,02,34,8.50
2012,10,01,02,35,8.50
2012,10,01,02,36,8.50
2012,10,01,02,37,8.40
2012,10,01,02,38,8.40
2012,10,01,02,39,8.40
2012,10,01,02,40,8.40
2012,10,01,02,41,8.30
2012,10,01,02,42,8.30
2012,10,01,02,43,8.30
2012,10,01,02,44,8.30
2012,10,01,02,45,8.40
2012,10,01,02,46,8.40
2012,10,01,02,47,8.30
2012,10,01,02,48,8.30
2012,10,01,02,49,8.30
2012,10,01,02,50,8.30
2012,10,01,02,51,8.40
2012,10,01,02,52,8.40
2012,10,01,02,53,8.40
2012,10,01,02,54,8.40
2012,10,01,02,55,8.40
2012,10,01,02,56,8.40
2012,10,01,02,57,8.40
2012,10,01,02,58,8.50
2012,10,01,02,59,8.50
2012,10,01,03,00,8.60
2012,10,01,03,01,8.60
2012,10,01,03,02,8.70
2012,10,01,03,03,8.70
2012,10,01,03,04,8.70
2012,10,01,03,05,8.70
2012,10,01,03,06,8.70
2012,10,01,03,07,8.70
2012,10,01,03,08,8.70
2012,10,01,03,09,8.60
2012,10,01,03,10,8.60
2012,10,01,03,11,8.50
2012,10,01,03,12,8.50
2012,10,01,03,13,8.40
2012,10,01,03,14,8.40
2012,10,01,03,15,8.40
2012,10,01,03,16,8.40
2012,10,01,03,17,8.50
2012,10,01,03,18,8.50
2012,10,01,03,19,8.50
2012,10,01,03,20,8.40
2012,10,01,03,21,8.40
2012,10,01,03,22,8.40
2012,10,01,03,23,8.40
2012,10,01,03,24,8.30
2012,10,01,03,25,8.30
2012,10,01,03,26,8.30
2012,10,01,03,27,8.30
2012,10,01,03,28,8.30
2012,10,01,03,29,8.30
2012,10,01,03,30,8.30
2012,10,01,03,31,8.30
2012,10,01,03,32,8.30
2012,10,01,03,33,8.30
2012,10,01,03,34,8.30
2012,10,01,03,35,8.30
2012,10,01,03,36,8.30
2012,10,01,03,37,8.30
2012,10,01,03,38,8.20
2012,10,01,03,39,8.20
2012,10,01,03,40,8.20
2012,10,01,03,41,8.20
2012,10,01,03,42,8.20
2012,10,01,03,43,8.20
2012,10,01,03,44,8.10
2012,10,01,03,45,8.10
2012,10,01,03,46,8.10
2012,10,01,03,47,8.10
2012,10,01,03,48,8.10
2012,10,01,03,49,8.10
2012,10,01,03,50,8.10
2012,10,01,03,51,8.10
2012,10,01,03,52,8.10
2012,10,01,03,53,8.10
2012,10,01,03,54,8.10
2012,10,01,03,55,8.10
2012,10,01,03,56,8.10
2012,10,01,03,57,8.10
2012,10,01,03,58,8.10
2012,10,01,03,59,8.10
2012,10,01,04,00,8.20
2012,10,01,04,01,8.20
2012,10,01,04,02,8.20
2012,10,01,04,03,8.20
2012,10,01,04,04,8.20
2012,10,01,04,05,8.20
2012,10,01,04,06,8.20
2012,10,01,04,07,8.20
2012,10,01,04,08,8.10
2012,10,01,04,09,8.10
2012,10,01,04,10,8.10
2012,10,01,04,11,8.00
2012,10,01,04,12,8.00
2012,10,01,04,13,8.00
2012,10,01,04,14,8.00
2012,10,01,04,15,8.00
2012,10,01,04,16,8.00
2012,10,01,04,17,8.00
2012,10,01,04,18,8.00
2012,10,01,04,19,8.10
2012,10,01,04,20,8.10
2012,10,01,04,21,8.10
2012,10,01,04,22,8.10
2012,10,01,04,23,8.00
2012,10,01,04,24,8.00
2012,10,01,04,25,7.90
2012,10,01,04,26,7.90
2012,10,01,04,27,7.80
2012,10,01,04,28,7.80
2012,10,01,04,29,7.80
2012,10,01,04,30,7.80
2012,10,01,04,31,7.80
2012,10,01,04,32,7.90
2012,10,01,04,33,7.90
2012,10,01,04,34,7.90
2012,10,01,04,35,7.90
2012,10,01,04,36,7.80
2012,10,01,04,37,7.90
2012,10,01,04,38,7.90
2012,10,01,04,39,7.90
2012,10,01,04,40,7.90
2012,10,01,04,41,7.90
2012,10,01,04,42,8.00
2012,10,01,04,43,8.00
2012,10,01,04,44,8.00
2012,10,01,04,45,8.00
2012,10,01,04,46,7.90
2012,10,01,04,47,8.00
2012,10,01,04,48,8.00
2012,10,01,04,49,8.00
2012,10,01,04,50,8.00
2012,10,01,04,51,8.00
2012,10,01,04,52,8.00
2012,10,01,04,53,8.10
2012,10,01,04,54,8.10
2012,10,01,04,55,8.10
2012,10,01,04,56,8.10
2012,10,01,04,57,8.10
2012,10,01,04,58,8.10
2012,10,01,04,59,8.10
2012,10,01,05,00,8.10
2012,10,01,05,01,8.10
2012,10,01,05,02,8.00
2012,10,01,05,03,8.00
2012,10,01,05,04,7.90
2012,10,01,05,05,7.90
2012,10,01,05,06,7.90
2012,10,01,05,07,7.90
2012,10,01,05,08,7.80
2012,10,01,05,09,7.80
2012,10,01,05,10,7.80
2012,10,01,05,11,7.80
2012,10,01,05,12,7.80
2012,10,01,05,13,7.90
2012,10,01,05,14,7.90
2012,10,01,05,15,8.00
2012,10,01,05,16,8.10
2012,10,01,05,17,8.10
2012,10,01,05,18,8.10
2012,10,01,05,19,8.10
2012,10,01,05,20,8.10
2012,10,01,05,21,8.00
2012,10,01,05,22,8.10
2012,10,01,05,23,8.10
2012,10,01,05,24,8.10
2012,10,01,05,25,8.10
2012,10,01,05,26,8.00
2012,10,01,05,27,8.00
2012,10,01,05,28,8.00
2012,10,01,05,29,8.10
2012,10,01,05,30,8.10
2012,10,01,05,31,8.20
2012,10,01,05,32,8.20
2012,10,01,05,33,8.20
2012,10,01,05,34,8.20
2012,10,01,05,35,8.20
2012,10,01,05,36,8.20
2012,10,01,05,37,8.20
2012,10,01,05,38,8.20
2012,10,01,05,39,8.20
2012,10,01,05,40,8.20
2012,10,01,05,41,8.20
2012,10,01,05,42,8.20
2012,10,01,05,43,8.10
2012,10,01,05,44,8.10
2012,10,01,05,45,8.00
2012,10,01,05,46,8.00
2012,10,01,05,47,8.00
2012,10,01,05,48,7.90
2012,10,01,05,49,7.90
2012,10,01,05,50,7.90
2012,10,01,05,51,7.90
2012,10,01,05,52,7.90
2012,10,01,05,53,7.90
2012,10,01,05,54,8.00
2012,10,01,05,55,8.10
2012,10,01,05,56,8.20
2012,10,01,05,57,8.20
2012,10,01,05,58,8.30
2012,10,01,05,59,8.30
2012,10,01,06,00,8.30
2012,10,01,06,01,8.20
2012,10,01,06,02,8.20
2012,10,01,06,03,8.20
2012,10,01,06,04,8.10
2012,10,01,06,05,8.10
2012,10,01,06,06,8.00
2012,10,01,06,07,8.00
2012,10,01,06,08,8.00
2012,10,01,06,09,7.90
2012,10,01,06,10,7.90
2012,10,01,06,11,7.80
2012,10,01,06,12,7.80
2012,10,01,06,13,7.80
2012,10,01,06,14,7.80
2012,10,01,06,15,7.80
2012,10,01,06,16,7.90
2012,10,01,06,17,7.90
2012,10,01,06,18,7.90
2012,10,01,06,19,7.90
2012,10,01,06,20,7.90
2012,10,01,06,21,7.90
2012,10,01,06,22,7.90
2012,10,01,06,23,7.90
2012,10,01,06,24,7.90
2012,10,01,06,25,7.90
2012,10,01,06,26,7.90
2012,10,01,06,27,7.90
2012,10,01,06,28,7.90
2012,10,01,06,29,7.90
2012,10,01,06,30,7.90
2012,10,01,06,31,7.90
2012,10,01,06,32,7.90
2012,10,01,06,33,8.00
2012,10,01,06,34,8.00
2012,10,01,06,35,8.00
2012,10,01,06,36,8.00
2012,10,01,06,37,8.00
2012,10,01,06,38,8.10
2012,10,01,06,39,8.10
2012,10,01,06,40,8.20
2012,10,01,06,41,8.10
2012,10,01,06,42,8.10
2012,10,01,06,43,8.10
2012,10,01,06,44,8.10
2012,10,01,06,45,8.00
2012,10,01,06,46,8.00
2012,10,01,06,47,8.00
2012,10,01,06,48,7.90
2012,10,01,06,49,7.90
2012,10,01,06,50,7.90
2012,10,01,06,51,7.80
2012,10,01,06,52,7.80
2012,10,01,06,53,7.80
2012,10,01,06,54,7.80
2012,10,01,06,55,7.80
2012,10,01,06,56,7.80
2012,10,01,06,57,7.80
2012,10,01,06,58,7.80
2012,10,01,06,59,7.80
2012,10,01,07,00,7.90
2012,10,01,07,01,7.90
2012,10,01,07,02,7.90
2012,10,01,07,03,7.90
2012,10,01,07,04,7.90
2012,10,01,07,05,7.90
2012,10,01,07,06,7.80
2012,10,01,07,07,7.80
2012,10,01,07,08,7.80
2012,10,01,07,09,7.80
2012,10,01,07,10,7.80
2012,10,01,07,11,7.80
2012,10,01,07,12,7.80
2012,10,01,07,13,7.80
2012,10,01,07,14,7.80
2012,10,01,07,15,7.80
2012,10,01,07,16,7.80
2012,10,01,07,17,7.80
2012,10,01,07,18,7.80
2012,10,01,07,19,7.80
2012,10,01,07,20,7.80
2012,10,01,07,21,7.80
2012,10,01,07,22,7.80
2012,10,01,07,23,7.80
2012,10,01,07,24,7.80
2012,10,01,07,25,7.80
2012,10,01,07,26,7.80
2012,10,01,07,27,7.80
2012,10,01,07,28,7.80
2012,10,01,07,29,7.80
2012,10,01,07,30,7.80
2012,10,01,07,31,7.80
2012,10,01,07,32,7.80
2012,10,01,07,33,7.80
2012,10,01,07,34,7.80
2012,10,01,07,35,7.90
2012,10,01,07,36,7.90
2012,10,01,07,37,7.90
2012,10,01,07,38,7.90
2012,10,01,07,39,7.90
2012,10,01,07,40,7.90
2012,10,01,07,41,7.90
2012,10,01,07,42,8.00
2012,10,01,07,43,8.00
2012,10,01,07,44,8.00
2012,10,01,07,45,8.00
2012,10,01,07,46,8.10
2012,10,01,07,47,8.10
2012,10,01,07,48,8.20
2012,10,01,07,49,8.20
2012,10,01,07,50,8.20
2012,10,01,07,51,8.30
2012,10,01,07,52,8.40
2012,10,01,07,53,8.50
2012,10,01,07,54,8.50
2012,10,01,07,55,8.60
2012,10,01,07,56,8.70
2012,10,01,07,57,8.70
2012,10,01,07,58,8.70
2012,10,01,07,59,8.80
2012,10,01,08,00,8.80
2012,10,01,08,01,8.90
2012,10,01,08,02,8.90
2012,10,01,08,03,9.00
2012,10,01,08,04,9.00
2012,10,01,08,05,9.10
2012,10,01,08,06,9.10
2012,10,01,08,07,9.20
2012,10,01,08,08,9.20
2012,10,01,08,09,9.30
2012,10,01,08,10,9.30
2012,10,01,08,11,9.30
2012,10,01,08,12,9.40
2012,10,01,08,13,9.40
2012,10,01,08,14,9.50
2012,10,01,08,15,9.50
2012,10,01,08,16,9.60
2012,10,01,08,17,9.60
2012,10,01,08,18,9.70
2012,10,01,08,19,9.70
2012,10,01,08,20,9.70
2012,10,01,08,21,9.70
2012,10,01,08,22,9.70
2012,10,01,08,23,9.80
2012,10,01,08,24,9.80
2012,10,01,08,25,9.90
2012,10,01,08,26,9.90
2012,10,01,08,27,9.90
2012,10,01,08,28,10.00
2012,10,01,08,29,10.10
2012,10,01,08,30,10.10
2012,10,01,08,31,10.10
2012,10,01,08,32,10.10
2012,10,01,08,33,10.20
2012,10,01,08,34,10.20
2012,10,01,08,35,10.20
2012,10,01,08,36,10.30
2012,10,01,08,37,10.30
2012,10,01,08,38,10.40
2012,10,01,08,39,10.40
2012,10,01,08,40,10.40
2012,10,01,08,41,10.40
2012,10,01,08,42,10.60
2012,10,01,08,43,10.60
2012,10,01,08,44,10.60
2012,10,01,08,45,10.60
2012,10,01,08,46,10.70
2012,10,01,08,47,10.80
2012,10,01,08,48,10.90
2012,10,01,08,49,11.00
2012,10,01,08,50,11.10
2012,10,01,08,51,11.20
2012,10,01,08,52,11.30
2012,10,01,08,53,11.40
2012,10,01,08,54,11.40
2012,10,01,08,55,11.60
2012,10,01,08,56,11.60
2012,10,01,08,57,11.60
2012,10,01,08,58,11.60
2012,10,01,08,59,11.60
2012,10,01,09,00,11.60
2012,10,01,09,01,11.60
2012,10,01,09,02,11.60
2012,10,01,09,03,11.60
2012,10,01,09,04,11.60
2012,10,01,09,05,11.60
2012,10,01,09,06,11.60
2012,10,01,09,07,11.70
2012,10,01,09,08,11.70
2012,10,01,09,09,11.70
2012,10,01,09,10,11.70
2012,10,01,09,11,11.60
2012,10,01,09,12,11.70
2012,10,01,09,13,11.70
2012,10,01,09,14,11.70
2012,10,01,09,15,11.60
2012,10,01,09,16,11.60
2012,10,01,09,17,11.60
2012,10,01,09,18,11.60
2012,10,01,09,19,11.60
2012,10,01,09,20,11.60
2012,10,01,09,21,11.60
2012,10,01,09,22,11.60
2012,10,01,09,23,11.60
2012,10,01,09,24,11.60
2012,10,01,09,25,11.60
2012,10,01,09,26,11.70
2012,10,01,09,27,11.70
2012,10,01,09,28,11.70
2012,10,01,09,29,11.80
2012,10,01,09,30,11.80
2012,10,01,09,31,11.80
2012,10,01,09,32,11.90
2012,10,01,09,33,11.90
2012,10,01,09,34,12.00
2012,10,01,09,35,12.00
2012,10,01,09,36,12.10
2012,10,01,09,37,12.20
2012,10,01,09,38,12.30
2012,10,01,09,39,12.40
2012,10,01,09,40,12.50
2012,10,01,09,41,12.70
2012,10,01,09,42,12.70
2012,10,01,09,43,12.70
2012,10,01,09,44,12.70
2012,10,01,09,45,12.70
2012,10,01,09,46,12.80
2012,10,01,09,47,12.80
2012,10,01,09,48,12.80
2012,10,01,09,49,12.80
2012,10,01,09,50,12.80
2012,10,01,09,51,12.80
2012,10,01,09,52,12.90
2012,10,01,09,53,13.00
2012,10,01,09,54,13.00
2012,10,01,09,55,13.00
2012,10,01,09,56,13.00
2012,10,01,09,57,13.10
2012,10,01,09,58,13.00
2012,10,01,09,59,13.00
2012,10,01,10,00,13.00
2012,10,01,10,01,12.90
2012,10,01,10,02,12.90
2012,10,01,10,03,12.80
2012,10,01,10,04,12.80
2012,10,01,10,05,12.80
2012,10,01,10,06,12.80
2012,10,01,10,07,12.80
2012,10,01,10,08,12.80
2012,10,01,10,09,12.80
2012,10,01,10,10,12.80
2012,10,01,10,11,12.80
2012,10,01,10,12,12.80
2012,10,01,10,13,12.80
2012,10,01,10,14,12.80
2012,10,01,10,15,12.80
2012,10,01,10,16,12.80
2012,10,01,10,17,12.80
2012,10,01,10,18,12.80
2012,10,01,10,19,12.80
2012,10,01,10,20,12.90
2012,10,01,10,21,12.90
2012,10,01,10,22,12.90
2012,10,01,10,23,12.90
2012,10,01,10,24,13.00
2012,10,01,10,25,13.00
2012,10,01,10,26,13.10
2012,10,01,10,27,13.10
2012,10,01,10,28,13.20
2012,10,01,10,29,13.30
2012,10,01,10,30,13.30
2012,10,01,10,31,13.40
2012,10,01,10,32,13.40
2012,10,01,10,33,13.50
2012,10,01,10,34,13.50
2012,10,01,10,35,13.60
2012,10,01,10,36,13.60
2012,10,01,10,37,13.70
2012,10,01,10,38,13.80
2012,10,01,10,39,13.80
2012,10,01,10,40,13.90
2012,10,01,10,41,13.80
2012,10,01,10,42,13.80
2012,10,01,10,43,13.80
2012,10,01,10,44,13.80
2012,10,01,10,45,13.80
2012,10,01,10,46,13.80
2012,10,01,10,47,13.70
2012,10,01,10,48,13.80
2012,10,01,10,49,13.90
2012,10,01,10,50,13.90
2012,10,01,10,51,14.00
2012,10,01,10,52,14.00
2012,10,01,10,53,14.00
2012,10,01,10,54,14.00
2012,10,01,10,55,14.00
2012,10,01,10,56,14.00
2012,10,01,10,57,14.00
2012,10,01,10,58,14.00
2012,10,01,10,59,14.10
2012,10,01,11,00,14.20
2012,10,01,11,01,14.20
2012,10,01,11,02,14.20
2012,10,01,11,03,14.20
2012,10,01,11,04,14.20
2012,10,01,11,05,14.20
2012,10,01,11,06,14.20
2012,10,01,11,07,14.20
2012,10,01,11,08,14.20
2012,10,01,11,09,14.20
2012,10,01,11,10,14.20
2012,10,01,11,11,14.20
2012,10,01,11,12,14.30
2012,10,01,11,13,14.40
2012,10,01,11,14,14.40
2012,10,01,11,15,14.40
2012,10,01,11,16,14.20
2012,10,01,11,17,14.20
2012,10,01,11,18,14.20
2012,10,01,11,19,14.10
2012,10,01,11,20,14.00
2012,10,01,11,21,14.00
2012,10,01,11,22,13.90
2012,10,01,11,23,13.90
2012,10,01,11,24,13.80
2012,10,01,11,25,13.80
2012,10,01,11,26,13.80
2012,10,01,11,27,13.70
2012,10,01,11,28,13.70
2012,10,01,11,29,13.70
2012,10,01,11,30,13.60
2012,10,01,11,31,13.60
2012,10,01,11,32,13.60
2012,10,01,11,33,13.60
2012,10,01,11,34,13.70
2012,10,01,11,35,13.70
2012,10,01,11,36,13.70
2012,10,01,11,37,13.70
2012,10,01,11,38,13.70
2012,10,01,11,39,13.70
2012,10,01,11,40,13.70
2012,10,01,11,41,13.70
2012,10,01,11,42,13.60
2012,10,01,11,43,13.60
2012,10,01,11,44,13.70
2012,10,01,11,45,13.70
2012,10,01,11,46,13.80
2012,10,01,11,47,13.80
2012,10,01,11,48,13.90
2012,10,01,11,49,13.90
2012,10,01,11,50,13.90
2012,10,01,11,51,14.00
2012,10,01,11,52,14.00
2012,10,01,11,53,14.10
2012,10,01,11,54,14.10
2012,10,01,11,55,14.20
2012,10,01,11,56,14.20
2012,10,01,11,57,14.10
2012,10,01,11,58,14.10
2012,10,01,11,59,14.00
2012,10,01,12,00,14.00
2012,10,01,12,01,14.00
2012,10,01,12,02,14.10
2012,10,01,12,03,14.20
2012,10,01,12,04,14.20
2012,10,01,12,05,14.40
2012,10,01,12,06,14.50
2012,10,01,12,07,14.60
2012,10,01,12,08,14.70
2012,10,01,12,09,14.80
2012,10,01,12,10,14.80
2012,10,01,12,11,14.80
2012,10,01,12,12,14.90
2012,10,01,12,13,14.90
2012,10,01,12,14,14.90
2012,10,01,12,15,14.90
2012,10,01,12,16,14.90
2012,10,01,12,17,14.90
2012,10,01,12,18,14.80
2012,10,01,12,19,14.80
2012,10,01,12,20,14.80
2012,10,01,12,21,14.70
2012,10,01,12,22,14.70
2012,10,01,12,23,14.80
2012,10,01,12,24,14.80
2012,10,01,12,25,14.90
2012,10,01,12,26,15.00
2012,10,01,12,27,15.10
2012,10,01,12,28,15.10
2012,10,01,12,29,15.20
2012,10,01,12,30,15.20
2012,10,01,12,31,15.20
2012,10,01,12,32,15.20
2012,10,01,12,33,15.30
2012,10,01,12,34,15.30
2012,10,01,12,35,15.30
2012,10,01,12,36,15.30
2012,10,01,12,37,15.40
2012,10,01,12,38,15.40
2012,10,01,12,39,15.40
2012,10,01,12,40,15.30
2012,10,01,12,41,15.40
2012,10,01,12,42,15.40
2012,10,01,12,43,15.40
2012,10,01,12,44,15.50
2012,10,01,12,45,15.50
2012,10,01,12,46,15.50
2012,10,01,12,47,15.40
2012,10,01,12,48,15.40
2012,10,01,12,49,15.40
2012,10,01,12,50,15.40
2012,10,01,12,51,15.30
2012,10,01,12,52,15.20
2012,10,01,12,53,15.20
2012,10,01,12,54,15.20
2012,10,01,12,55,15.20
2012,10,01,12,56,15.20
2012,10,01,12,57,15.20
2012,10,01,12,58,15.10
2012,10,01,12,59,15.00
2012,10,01,13,00,14.90
2012,10,01,13,01,14.90
2012,10,01,13,02,14.80
2012,10,01,13,03,14.70
2012,10,01,13,04,14.60
2012,10,01,13,05,14.70
2012,10,01,13,06,14.70
2012,10,01,13,07,14.70
2012,10,01,13,08,14.70
2012,10,01,13,09,14.70
2012,10,01,13,10,14.70
2012,10,01,13,11,14.70
2012,10,01,13,12,14.70
2012,10,01,13,13,14.60
2012,10,01,13,14,14.60
2012,10,01,13,15,14.50
2012,10,01,13,16,14.50
2012,10,01,13,17,14.50
2012,10,01,13,18,14.40
2012,10,01,13,19,14.40
2012,10,01,13,20,14.40
2012,10,01,13,21,14.40
2012,10,01,13,22,14.40
2012,10,01,13,23,14.40
2012,10,01,13,24,14.40
2012,10,01,13,25,14.50
2012,10,01,13,26,14.50
2012,10,01,13,27,14.50
2012,10,01,13,28,14.60
2012,10,01,13,29,14.60
2012,10,01,13,30,14.60
2012,10,01,13,31,14.70
2012,10,01,13,32,14.70
2012,10,01,13,33,14.70
2012,10,01,13,34,14.80
2012,10,01,13,35,14.80
2012,10,01,13,36,14.90
2012,10,01,13,37,15.00
2012,10,01,13,38,15.00
2012,10,01,13,39,15.00
2012,10,01,13,40,15.00
2012,10,01,13,41,15.10
2012,10,01,13,42,15.10
2012,10,01,13,43,15.10
2012,10,01,13,44,15.10
2012,10,01,13,45,15.10
2012,10,01,13,46,15.00
2012,10,01,13,47,14.90
2012,10,01,13,48,14.90
2012,10,01,13,49,14.80
2012,10,01,13,50,14.80
2012,10,01,13,51,14.80
2012,10,01,13,52,14.70
2012,10,01,13,53,14.70
2012,10,01,13,54,14.60
2012,10,01,13,55,14.60
2012,10,01,13,56,14.60
2012,10,01,13,57,14.60
2012,10,01,13,58,14.70
2012,10,01,13,59,14.80
2012,10,01,14,00,14.80
2012,10,01,14,01,14.80
2012,10,01,14,02,14.90
2012,10,01,14,03,15.00
2012,10,01,14,04,15.00
2012,10,01,14,05,15.00
2012,10,01,14,06,15.10
2012,10,01,14,07,15.10
2012,10,01,14,08,15.10
2012,10,01,14,09,15.10
2012,10,01,14,10,15.10
2012,10,01,14,11,15.00
2012,10,01,14,12,14.90
2012,10,01,14,13,14.90
2012,10,01,14,14,14.90
2012,10,01,14,15,14.90
2012,10,01,14,16,15.00
2012,10,01,14,17,15.00
2012,10,01,14,18,15.00
2012,10,01,14,19,15.10
2012,10,01,14,20,15.10
2012,10,01,14,21,15.10
2012,10,01,14,22,15.20
2012,10,01,14,23,15.20
2012,10,01,14,24,15.30
2012,10,01,14,25,15.30
2012,10,01,14,26,15.30
2012,10,01,14,27,15.30
2012,10,01,14,28,15.30
2012,10,01,14,29,15.30
2012,10,01,14,30,15.40
2012,10,01,14,31,15.50
2012,10,01,14,32,15.50
2012,10,01,14,33,15.60
2012,10,01,14,34,15.70
2012,10,01,14,35,15.70
2012,10,01,14,36,15.70
2012,10,01,14,37,15.80
2012,10,01,14,38,15.80
2012,10,01,14,39,15.80
2012,10,01,14,40,15.80
2012,10,01,14,41,15.80
2012,10,01,14,42,15.80
2012,10,01,14,43,15.80
2012,10,01,14,44,15.80
2012,10,01,14,45,16.00
2012,10,01,14,46,16.10
2012,10,01,14,47,16.20
2012,10,01,14,48,16.30
2012,10,01,14,49,16.30
2012,10,01,14,50,16.40
2012,10,01,14,51,16.50
2012,10,01,14,52,16.60
2012,10,01,14,53,16.70
2012,10,01,14,54,16.80
2012,10,01,14,55,16.90
2012,10,01,14,56,17.00
2012,10,01,14,57,17.20
2012,10,01,14,58,17.30
2012,10,01,14,59,17.30
2012,10,01,15,00,17.30
2012,10,01,15,01,17.30
2012,10,01,15,02,17.30
2012,10,01,15,03,17.40
2012,10,01,15,04,17.40
2012,10,01,15,05,17.50
2012,10,01,15,06,17.50
2012,10,01,15,07,17.60
2012,10,01,15,08,17.60
2012,10,01,15,09,17.60
2012,10,01,15,10,17.60
2012,10,01,15,11,17.50
2012,10,01,15,12,17.50
2012,10,01,15,13,17.40
2012,10,01,15,14,17.40
2012,10,01,15,15,17.40
2012,10,01,15,16,17.40
2012,10,01,15,17,17.30
2012,10,01,15,18,17.30
2012,10,01,15,19,17.20
2012,10,01,15,20,17.20
2012,10,01,15,21,17.10
2012,10,01,15,22,17.10
2012,10,01,15,23,17.20
2012,10,01,15,24,17.10
2012,10,01,15,25,17.10
2012,10,01,15,26,17.10
2012,10,01,15,27,17.10
2012,10,01,15,28,17.10
2012,10,01,15,29,17.20
2012,10,01,15,30,17.20
2012,10,01,15,31,17.30
2012,10,01,15,32,17.40
2012,10,01,15,33,17.50
2012,10,01,15,34,17.70
2012,10,01,15,35,17.80
2012,10,01,15,36,17.90
2012,10,01,15,37,18.10
2012,10,01,15,38,18.30
2012,10,01,15,39,18.40
2012,10,01,15,40,18.60
2012,10,01,15,41,18.80
2012,10,01,15,42,19.00
2012,10,01,15,43,19.10
2012,10,01,15,44,19.20
2012,10,01,15,45,19.30
2012,10,01,15,46,19.30
2012,10,01,15,47,19.20
2012,10,01,15,48,19.20
2012,10,01,15,49,19.10
2012,10,01,15,50,19.10
2012,10,01,15,51,19.10
2012,10,01,15,52,19.20
2012,10,01,15,53,19.30
2012,10,01,15,54,19.40
2012,10,01,15,55,19.40
2012,10,01,15,56,19.50
2012,10,01,15,57,19.50
2012,10,01,15,58,19.50
2012,10,01,15,59,19.50
2012,10,01,16,00,19.40
2012,10,01,16,01,19.40
2012,10,01,16,02,19.50
2012,10,01,16,03,19.60
2012,10,01,16,04,19.60
2012,10,01,16,05,19.70
2012,10,01,16,06,19.80
2012,10,01,16,07,20.00
2012,10,01,16,08,20.40
2012,10,01,16,09,20.80
2012,10,01,16,10,21.10
2012,10,01,16,11,21.30
2012,10,01,16,12,21.40
2012,10,01,16,13,21.60
2012,10,01,16,14,21.90
2012,10,01,16,15,22.10
2012,10,01,16,16,22.40
2012,10,01,16,17,22.60
2012,10,01,16,18,22.80
2012,10,01,16,19,22.90
2012,10,01,16,20,23.00
2012,10,01,16,21,23.10
2012,10,01,16,22,23.10
2012,10,01,16,23,23.10
2012,10,01,16,24,23.20
2012,10,01,16,25,23.20
2012,10,01,16,26,23.20
2012,10,01,16,27,23.20
2012,10,01,16,28,23.20
2012,10,01,16,29,23.20
2012,10,01,16,30,23.20
2012,10,01,16,31,23.20
2012,10,01,16,32,23.20
2012,10,01,16,33,23.20
2012,10,01,16,34,23.10
2012,10,01,16,35,23.10
2012,10,01,16,36,23.10
2012,10,01,16,37,23.10
2012,10,01,16,38,23.10
2012,10,01,16,39,23.10
2012,10,01,16,40,23.20
2012,10,01,16,41,23.20
2012,10,01,16,42,23.20
2012,10,01,16,43,23.20
2012,10,01,16,44,23.20
2012,10,01,16,45,23.20
2012,10,01,16,46,23.20
2012,10,01,16,47,23.20
2012,10,01,16,48,23.10
2012,10,01,16,49,23.10
2012,10,01,16,50,23.00
2012,10,01,16,51,22.90
2012,10,01,16,52,22.90
2012,10,01,16,53,22.80
2012,10,01,16,54,22.80
2012,10,01,16,55,22.80
2012,10,01,16,56,22.80
2012,10,01,16,57,22.70
2012,10,01,16,58,22.60
2012,10,01,16,59,22.60
2012,10,01,17,00,22.60
2012,10,01,17,01,22.60
2012,10,01,17,02,22.60
2012,10,01,17,03,22.50
2012,10,01,17,04,22.40
2012,10,01,17,05,22.40
2012,10,01,17,06,22.40
2012,10,01,17,07,22.30
2012,10,01,17,08,22.20
2012,10,01,17,09,22.20
2012,10,01,17,10,22.20
2012,10,01,17,11,22.10
2012,10,01,17,12,22.00
2012,10,01,17,13,22.00
2012,10,01,17,14,22.00
2012,10,01,17,15,21.90
2012,10,01,17,16,21.90
2012,10,01,17,17,21.90
2012,10,01,17,18,21.90
2012,10,01,17,19,21.80
2012,10,01,17,20,21.80
2012,10,01,17,21,21.80
2012,10,01,17,22,21.80
2012,10,01,17,23,21.80
2012,10,01,17,24,21.80
2012,10,01,17,25,21.80
2012,10,01,17,26,21.80
2012,10,01,17,27,21.80
2012,10,01,17,28,21.80
2012,10,01,17,29,21.80
2012,10,01,17,30,21.80
2012,10,01,17,31,21.80
2012,10,01,17,32,21.80
2012,10,01,17,33,21.80
2012,10,01,17,34,21.80
2012,10,01,17,35,21.80
2012,10,01,17,36,21.80
2012,10,01,17,37,21.70
2012,10,01,17,38,21.70
2012,10,01,17,39,21.70
2012,10,01,17,40,21.70
2012,10,01,17,41,21.60